Weather in Herrljunga

Sweden     58°04′41″N   13°01′33″E
temp.,
°C
wind,
m/s
gust,
m/s
humid.,
%
clouds,
%
prec.,
mm/h
press.,
hPa
HPBL,
m
11 may, tue
tue1123:00+12s3798100 4.1 1010377
02:00+10sw119980 5.1 101113
05:00+9s1296100 0.0 101244
08:00+10ssw1397100 0.9 1013110
11:00+10nnw2498100 0.8 1013261
14:00+9ne3697100 4.8 1013337
17:00+9nne3898100 0.3 1012383
20:00+9ne41296100 4.3 1010447
12 may, wed
wed1223:00+8n3799100 0.4 1010273
02:00+9nne3799100 0.4 1007206
05:00+10ne15100100 0.8 1006142
08:00+15se3995100 0.8 1005460
11:00+18s3787100 1.1 1005928
14:00+20s368230 2.4 1005922
17:00+19sw358740 4.4 1006666
20:00+17wsw249466 6.3 1007140
13 may, thu
thu1323:00+13ssw1398100 0.3 1008131
02:00+13s1198100 0.3 100854
05:00+13sse0098100 0.1 100822
08:00+14e1297100 0.1 1008126
11:00+15se2491100 0.0 1008417
14:00+19se2373100 0.8 1007957
17:00+20ne2475100 2.9 1006824
20:00+15e2779100 3.1 1006146
14 may, fri
fri1423:00+10ese310805 0.0 1007172
02:00+9ese258632 0.0 100788
05:00+11e2786100 0.1 1007235
08:00+12ene3585100 0.1 1007447
11:00+17e355386 0.0 10061330
14:00+18ene4548100 0.0 10061923
17:00+17ene3451100 0.0 10061961
20:00+10ne1496100 1.9 1007163
15 may, sat
sat1523:00+8e239623 0.4 100781
02:00+8e2496100 0.4 1007122
05:00+7e2396100 0.0 100760
08:00+10ene248577 0.0 1007345
11:00+11ene2478100 0.1 1006695
14:00+10ne2488100 0.7 1006420
17:00+9e1496100 1.3 1006268
20:00+9ene1297100 1.6 100688